(511) Davida
ephemeris date magn radius delta ra dec elong phase
Today3 Jul 202511.42.579 AU3.595 AU06h44m+21°31'1.6°0.6°
Opposition23 Feb 202610.62.875 AU1.917 AU10h54m+26°22'162.1°6.1°
(511) Davida - 2025-07-03
astro.vanbuitenen.nl


 
-1 year
-1 month
-1 day
Now
+1 day
+1 month
+1 year

The interactive orbit chart above shows the body's path through the solar system and its position at the given date. Green and blue lines are shown perpendicular to the ecliptic plane: Green if the path is above the ecliptic plane, blue if it is below. (Left-click and drag to rotate the view; Right-click and drag to move the view; Use scroll wheel to zoom in our out.)

The orbital elements of Davida are:

            e (Eccentricity)                : 0.1898218
            a (Semimajor axis)              : 3.1650291
            i (Inclination)                 : 15.94716
            Ω (Longitude of ascending node) : 107.55661
            ω (Argument of perihelion)      : 336.86460
            M (Mean anomaly)                : 0.08266
            Epoch                           : 2025 May 05

            L (Longitude of perihelion)     : 85.22260
            B (Latitude of perihelion)      : -6.19722
            P (Orbital period in years)     : 5.63            
        

The light curve chart below shows the estimated development of the minor planet's magnitude.


The all-sky chart below shows the path of the minor planet over the same period as the light curve. The current position is marked yellow.





The following chart shows the path of the minor planet in the next few days. The field of view is optimized for (~10x50) binoculars and finderscopes. A more printer-friendly version of the same chart can be found below.




Ephemerides:
Date       Time       RA (2000)    DEC (2000)    delta   radius  elong  phase   PA    magn
2025-07-03 00:00 UT   06 44 53.9   +21 31 59     3.595    2.579    1.6    0.6   205   11.4 
2025-07-03 05:20 UT   06 45 19.7   +21 32 11     3.595    2.579    1.6    0.6   209   11.4 
2025-07-04 00:00 UT   06 46 50.1   +21 32 52     3.596    2.580    1.8    0.7   221   11.4 
2025-07-05 00:00 UT   06 48 46.4   +21 33 40     3.596    2.580    2.1    0.8   233   11.4 
2025-07-06 00:00 UT   06 50 42.6   +21 34 23     3.596    2.581    2.5    1.0   242   11.4 
2025-07-07 00:00 UT   06 52 38.8   +21 35 00     3.596    2.581    2.9    1.1   249   11.4 
2025-07-08 00:00 UT   06 54 35.0   +21 35 32     3.596    2.582    3.3    1.3   253   11.4 
2025-07-09 00:00 UT   06 56 31.1   +21 35 59     3.596    2.582    3.8    1.5   257   11.4 
2025-07-10 00:00 UT   06 58 27.2   +21 36 20     3.596    2.583    4.3    1.7   260   11.5 
2025-07-11 00:00 UT   07 00 23.2   +21 36 37     3.595    2.583    4.7    1.9   263   11.5 
2025-07-12 00:00 UT   07 02 19.1   +21 36 48     3.595    2.584    5.2    2.0   265   11.5 
2025-07-13 00:00 UT   07 04 15.0   +21 36 54     3.594    2.585    5.7    2.2   266   11.5 
2025-07-14 00:00 UT   07 06 10.9   +21 36 54     3.593    2.585    6.2    2.4   268   11.5 
2025-07-15 00:00 UT   07 08 06.6   +21 36 50     3.593    2.586    6.7    2.6   269   11.5 
2025-07-16 00:00 UT   07 10 02.3   +21 36 41     3.592    2.586    7.2    2.8   270   11.5 
2025-07-17 00:00 UT   07 11 58.0   +21 36 27     3.591    2.587    7.7    3.0   271   11.6 
2025-07-18 00:00 UT   07 13 53.5   +21 36 07     3.589    2.588    8.2    3.2   272   11.6 
2025-07-19 00:00 UT   07 15 49.0   +21 35 43     3.588    2.588    8.7    3.4   273   11.6 
2025-07-20 00:00 UT   07 17 44.4   +21 35 14     3.587    2.589    9.2    3.6   274   11.6 
2025-07-21 00:00 UT   07 19 39.6   +21 34 40     3.585    2.590    9.7    3.8   274   11.6 


    Terminology:
            
    delta:  distance between minor planet and earth in AU
    radius: distance between minor planet and sun in AU
    magn:   magnitude (brightness) estimate    
    ra:     right ascension in hours (24h = 360deg)
    dec:    declination in degrees
    elong:  elongation in degrees (angle sun-earth-minor planet)    
    phase:  phase angle in degrees (angle sun-minor planet-earth)        
    AU:     Astronomical Unit (mean distance between earth and sun: 149597870.7 km
    

Orbital elements provided by the MPC (Minor Planet Center).
Calculations by a modified version of AAPlus, a C# implementation of the AA+ project by PJ Naughter from the algorithms presented in the book "Astronomical Algorithms" by Jean Meeus.
NGC2000 dso catalog and star labels from VizieR as provided by the Strasbourg astronomical Data Center.
Tycho2 catalog from the ESO archive.